Terug naar catalogus

STARLINK-35926

ActiefCommunicatieVLEO
NORAD 66642·PAYLOAD·🇺🇸 United States

Gelanceerd Nov 23, 2025 vanaf Vandenberg Space Force Base

Loading…

Volgende Passages (komende 24 uur)

TLE

VersSource: CelesTrak SupGP

Epoch: Sep 14, 2026, 23:08 UTC

1 66642C 25271AB  26257.96437500  .00008211  00000+0  24269-3 0  2571
2 66642  53.1593 339.5486 0001212  79.3648 248.1177 15.34374536    15

Volg STARLINK-35926 in realtime met AllMySat

Download on the App Store